Location: Val-d'Or
(48.1170°N, 77.7670°W)
Time: 17:14:31
(UTC-05:00)

Envisat - Visible Passes

Search period start: 16 December 2018 00:00
Search period end: 26 December 2018 00:00
Orbit: 764 x 766 km, 98.2° (Epoch: 16 December)

Date Brightness Start Highest point End Pass type
(mag) Time Alt. Az. Time Alt. Az. Time Alt. Az.
16 Dec 5.8 06:46:29 10° NE 06:50:06 19° E 06:53:42 10° SE visible
16 Dec 3.5 18:04:11 10° SE 18:08:47 36° ENE 18:13:25 10° N visible
16 Dec 4.5 19:43:14 10° SSW 19:47:49 34° W 19:52:26 10° NNW visible
17 Dec 4.2 17:28:50 10° ESE 17:32:24 20° ENE 17:35:58 10° NNE visible
17 Dec 3.2 19:05:51 10° S 19:10:55 70° WSW 19:16:01 10° NNW visible
18 Dec 5.1 07:11:22 10° NNE 07:15:54 31° E 07:20:24 10° SSE visible
18 Dec 4.8 16:55:22 10° ENE 16:56:12 10° NE 16:57:02 10° NE visible
18 Dec 2.9 18:29:13 10° SSE 18:34:12 59° ENE 18:39:13 10° N visible
18 Dec 5.3 20:09:51 10° SW 20:13:37 21° W 20:17:24 10° NW visible
19 Dec 5.9 06:35:46 10° NE 06:38:46 16° E 06:41:46 10° SE visible
19 Dec 3.7 17:53:18 10° ESE 17:57:40 30° ENE 18:02:04 10° N visible
19 Dec 4.1 19:31:46 10° SSW 19:36:34 41° W 19:41:23 10° NNW visible
20 Dec 4.4 17:18:16 10° E 17:21:20 16° ENE 17:24:26 10° NNE visible
20 Dec 2.9 18:54:37 10° SSE 18:59:42 85° WSW 19:04:50 10° NNW visible
20 Dec 5.9 20:37:29 10° WSW 20:39:30 12° W 20:41:32 10° WNW visible
21 Dec 5.4 07:00:23 10° NE 07:04:37 26° E 07:08:48 10° SSE visible
21 Dec 3.1 18:18:11 10° SE 18:23:03 48° ENE 18:27:55 10° N visible
21 Dec 5.0 19:58:08 10° SSW 20:02:18 25° W 20:06:30 10° NW visible
22 Dec 6.1 06:25:18 10° ENE 06:27:25 12° E 06:29:30 10° ESE visible
22 Dec 3.9 17:42:29 10° ESE 17:46:35 25° ENE 17:50:40 10° N visible
22 Dec 3.7 19:20:22 10° S 19:25:18 51° W 19:30:17 10° NNW visible
23 Dec 4.6 17:07:51 10° E 17:10:18 14° NE 17:12:45 10° NNE visible
23 Dec 2.8 18:43:27 10° SSE 18:48:30 79° ENE 18:53:37 10° NNW visible
23 Dec 5.7 20:25:12 10° WSW 20:28:09 15° W 20:31:07 10° NW visible
24 Dec 5.7 06:49:29 10° NE 06:53:18 21° E 06:57:06 10° SE visible
24 Dec 3.4 18:07:13 10° SE 18:11:55 39° ENE 18:16:37 10° N visible
24 Dec 4.7 19:46:32 10° SSW 19:51:00 31° W 19:55:31 10° NNW visible
25 Dec 4.1 17:31:46 10° ESE 17:35:30 21° ENE 17:39:14 10° NNE visible
25 Dec 3.3 19:09:02 10° S 19:14:04 64° WSW 19:19:09 10° NNW visible
